Location: Meanaryar
(48.4161°N, 4.7315°W)
Time: 00:41:12
(UTC+00:00)

USA 234 - Pass Details

Date: 18 September 2020
Orbit: 1102 x 1106 km, 123.0° (Epoch: 16 October)

Event Time Altitude Azimuth Distance (km) Brightness Sun altitude
Exits shadow 20:19:21 - 56° (NE) 3,675 5.7 -19.2°
Reaches altitude 10° 20:21:15 10° 60° (ENE) 2,967 5.2 -19.5°
Maximum altitude 20:27:40 55° 137° (SE) 1,307 3.3 -20.5°
Drops below altitude 10° 20:34:03 10° 214° (SW) 2,957 5.6 -21.4°
Sets 20:36:36 0° 219° (SW) 3,913 6.3 -21.8°
